Hourly Weather Abanilla

Today, 29 October, Thursday

Time Temperature Precipitation Wind Pressure Humidity
00:00 +15°C° 0 mm 1 mps 746 mmHg 70%
01:00 +15°C° 0 mm 1 mps 746 mmHg 70%
02:00 +15°C° 0 mm 1 mps 745 mmHg 70%
03:00 +15°C° 0 mm 1 mps 745 mmHg 71%
04:00 +14°C° 0 mm 1 mps 746 mmHg 72%
05:00 +14°C° 0 mm 1 mps 746 mmHg 73%
06:00 +14°C° 0 mm 1 mps 746 mmHg 75%
07:00 +16°C° 0 mm 1 mps 747 mmHg 67%
08:00 +19°C° 0 mm 1 mps 748 mmHg 60%
09:00 +21°C° 0 mm 1 mps 748 mmHg 53%
10:00 +21°C° 0 mm 2 mps 748 mmHg 50%
11:00 +23°C° 0 mm 2 mps 748 mmHg 48%
12:00 +24°C° 0 mm 3 mps 748 mmHg 46%
13:00 +24°C° 0 mm 3 mps 747 mmHg 46%
14:00 +24°C° 0 mm 3 mps 747 mmHg 46%
15:00 +24°C° 0 mm 3 mps 747 mmHg 46%
16:00 +21°C° 0 mm 2 mps 747 mmHg 55%
17:00 +19°C° 0 mm 2 mps 747 mmHg 64%
18:00 +18°C° 0 mm 1 mps 747 mmHg 73%
19:00 +16°C° 0 mm 1 mps 747 mmHg 76%
20:00 +16°C° 0 mm 1 mps 747 mmHg 79%
21:00 +15°C° 0 mm 1 mps 748 mmHg 82%
22:00 +14°C° 0 mm 0 mps 747 mmHg 83%
23:00 +13°C° 0 mm 0 mps 747 mmHg 84%

Tomorrow, 30 October, Friday

Time Temperature Precipitation Wind Pressure Humidity
00:00 +13°C° 0 mm 0 mps 747 mmHg 85%
01:00 +13°C° 0 mm 0 mps 747 mmHg 85%
02:00 +12°C° 0 mm 0 mps 747 mmHg 85%
03:00 +12°C° 0 mm 0 mps 746 mmHg 84%
04:00 +12°C° 0 mm 0 mps 746 mmHg 84%
05:00 +11°C° 0 mm 0 mps 746 mmHg 83%
06:00 +11°C° 0 mm 0 mps 746 mmHg 82%
07:00 +14°C° 0 mm 0 mps 746 mmHg 71%
08:00 +16°C° 0 mm 0 mps 747 mmHg 60%
09:00 +19°C° 0 mm 0 mps 747 mmHg 49%
10:00 +22°C° 0 mm 1 mps 747 mmHg 44%
11:00 +24°C° 0 mm 1 mps 747 mmHg 40%
12:00 +25°C° 0 mm 2 mps 747 mmHg 35%
13:00 +25°C° 0 mm 2 mps 746 mmHg 36%
14:00 +25°C° 0 mm 3 mps 746 mmHg 37%
15:00 +25°C° 0 mm 3 mps 746 mmHg 37%
16:00 +23°C° 0 mm 2 mps 746 mmHg 48%
17:00 +20°C° 0 mm 2 mps 746 mmHg 60%
18:00 +18°C° 0 mm 1 mps 745 mmHg 71%
19:00 +16°C° 0 mm 1 mps 746 mmHg 73%
20:00 +16°C° 0 mm 1 mps 746 mmHg 75%
21:00 +14°C° 0 mm 0 mps 746 mmHg 77%
22:00 +14°C° 0 mm 0 mps 746 mmHg 77%
23:00 +13°C° 0 mm 0 mps 746 mmHg 77%

Day after tomorrow, 31 October, Saturday

Time Temperature Precipitation Wind Pressure Humidity
00:00 +13°C° 0 mm 0 mps 745 mmHg 77%
01:00 +13°C° 0 mm 0 mps 745 mmHg 77%
02:00 +12°C° 0 mm 0 mps 745 mmHg 77%
03:00 +12°C° 0 mm 0 mps 745 mmHg 78%
04:00 +12°C° 0 mm 0 mps 745 mmHg 77%
05:00 +12°C° 0 mm 0 mps 745 mmHg 77%
06:00 +12°C° 0 mm 0 mps 745 mmHg 77%
07:00 +14°C° 0 mm 0 mps 745 mmHg 66%
08:00 +17°C° 0 mm 0 mps 746 mmHg 55%
09:00 +20°C° 0 mm 0 mps 746 mmHg 44%
10:00 +21°C° 0 mm 0 mps 746 mmHg 40%
11:00 +24°C° 0 mm 1 mps 746 mmHg 36%
12:00 +25°C° 0 mm 1 mps 746 mmHg 32%
13:00 +25°C° 0 mm 2 mps 746 mmHg 34%
14:00 +25°C° 0 mm 2 mps 745 mmHg 35%
15:00 +26°C° 0 mm 2 mps 745 mmHg 36%
16:00 +23°C° 0 mm 2 mps 745 mmHg 49%
17:00 +21°C° 0 mm 1 mps 745 mmHg 61%
18:00 +18°C° 0 mm 1 mps 745 mmHg 74%
19:00 +18°C° 0 mm 1 mps 745 mmHg 77%
20:00 +15°C° 0 mm 0 mps 745 mmHg 79%
21:00 +14°C° 0 mm 0 mps 745 mmHg 82%
22:00 +14°C° 0 mm 0 mps 745 mmHg 82%
23:00 +14°C° 0 mm 0 mps 745 mmHg 81%

1 November, Sunday

Time Temperature Precipitation Wind Pressure Humidity
00:00 +14°C° 0 mm 0 mps 745 mmHg 81%
01:00 +13°C° 0 mm 0 mps 745 mmHg 81%
02:00 +13°C° 0 mm 0 mps 745 mmHg 80%
03:00 +13°C° 0 mm 0 mps 744 mmHg 80%
04:00 +13°C° 0 mm 0 mps 744 mmHg 80%
05:00 +12°C° 0 mm 0 mps 745 mmHg 80%
06:00 +12°C° 0 mm 0 mps 745 mmHg 80%
07:00 +15°C° 0 mm 0 mps 745 mmHg 70%
08:00 +17°C° 0 mm 0 mps 745 mmHg 59%
09:00 +20°C° 0 mm 0 mps 746 mmHg 49%
10:00 +23°C° 0 mm 1 mps 745 mmHg 45%
11:00 +25°C° 0 mm 1 mps 745 mmHg 40%
12:00 +26°C° 0 mm 1 mps 745 mmHg 36%
13:00 +26°C° 0 mm 2 mps 745 mmHg 37%
14:00 +26°C° 0 mm 2 mps 744 mmHg 38%
15:00 +26°C° 0 mm 3 mps 744 mmHg 39%
16:00 +24°C° 0 mm 2 mps 744 mmHg 49%
17:00 +20°C° 0 mm 2 mps 744 mmHg 59%
18:00 +19°C° 0 mm 1 mps 744 mmHg 69%
19:00 +18°C° 0 mm 1 mps 744 mmHg 72%
20:00 +18°C° 0 mm 1 mps 744 mmHg 75%
21:00 +16°C° 0 mm 1 mps 744 mmHg 78%
22:00 +14°C° 0 mm 0 mps 744 mmHg 79%
23:00 +14°C° 0 mm 0 mps 744 mmHg 80%

2 November, Monday

Time Temperature Precipitation Wind Pressure Humidity
00:00 +14°C° 0 mm 0 mps 743 mmHg 81%
01:00 +13°C° 0 mm 0 mps 743 mmHg 81%
02:00 +13°C° 0 mm 0 mps 743 mmHg 82%
03:00 +12°C° 0 mm 0 mps 742 mmHg 82%
04:00 +12°C° 0 mm 0 mps 742 mmHg 82%
05:00 +12°C° 0 mm 0 mps 742 mmHg 82%
06:00 +12°C° 0 mm 0 mps 742 mmHg 82%
07:00 +14°C° 0 mm 0 mps 743 mmHg 72%
08:00 +16°C° 0 mm 0 mps 743 mmHg 61%
09:00 +19°C° 0 mm 0 mps 743 mmHg 51%
10:00 +22°C° 0 mm 1 mps 743 mmHg 45%
11:00 +24°C° 0 mm 1 mps 743 mmHg 39%
12:00 +25°C° 0 mm 2 mps 743 mmHg 32%
13:00 +25°C° 0 mm 2 mps 743 mmHg 33%
14:00 +26°C° 0 mm 2 mps 742 mmHg 33%
15:00 +26°C° 0 mm 3 mps 742 mmHg 33%
16:00 +23°C° 0 mm 2 mps 742 mmHg 43%
17:00 +21°C° 0 mm 1 mps 742 mmHg 54%
18:00 +18°C° 0 mm 1 mps 742 mmHg 65%
19:00 +16°C° 0 mm 1 mps 742 mmHg 68%
20:00 +15°C° 0 mm 0 mps 742 mmHg 70%
21:00 +14°C° 0 mm 0 mps 742 mmHg 73%
22:00 +14°C° 0 mm 0 mps 742 mmHg 73%
23:00 +14°C° 0 mm 0 mps 742 mmHg 72%

3 November, Tuesday

Time Temperature Precipitation Wind Pressure Humidity
00:00 +13°C° 0 mm 0 mps 742 mmHg 72%
01:00 +13°C° 0 mm 0 mps 742 mmHg 72%
02:00 +13°C° 0 mm 0 mps 742 mmHg 71%
03:00 +14°C° 0 mm 1 mps 741 mmHg 70%
04:00 +14°C° 0 mm 1 mps 741 mmHg 69%
05:00 +14°C° 0 mm 1 mps 741 mmHg 68%
06:00 +14°C° 0 mm 1 mps 741 mmHg 67%
07:00 +18°C° 0 mm 1 mps 742 mmHg 58%
08:00 +20°C° 0 mm 1 mps 742 mmHg 48%
09:00 +23°C° 0 mm 1 mps 743 mmHg 39%
10:00 +24°C° 0 mm 2 mps 742 mmHg 37%
11:00 +25°C° 0 mm 2 mps 742 mmHg 35%
12:00 +26°C° 0 mm 2 mps 742 mmHg 33%
13:00 +26°C° 0 mm 2 mps 742 mmHg 34%
14:00 +26°C° 0 mm 2 mps 742 mmHg 35%
15:00 +26°C° 0 mm 3 mps 742 mmHg 36%
16:00 +24°C° 0 mm 2 mps 742 mmHg 42%
17:00 +21°C° 0 mm 2 mps 742 mmHg 49%
18:00 +20°C° 0 mm 1 mps 741 mmHg 56%
19:00 +19°C° 0 mm 1 mps 742 mmHg 59%
20:00 +18°C° 0 mm 1 mps 742 mmHg 61%
21:00 +18°C° 0 mm 1 mps 742 mmHg 64%
22:00 +18°C° 0 mm 1 mps 742 mmHg 63%
23:00 +18°C° 0 mm 1 mps 742 mmHg 62%
Show more